This demonstration page uses our WeatherBlox Daily Observations layout. Learn more.

Left ArrowRight Arrow

34.74481, -87.66753

Hourly Observations for May 6, 2017

Temp ( °F °C ) Dew Point ( °F °C ) Humidity (%) Winds ( mph kmh ) Pressure ( in mb ) Visibility ( mi km ) Precip ( " mm )
12:53 am 00:53 Clear 51 10.6 41 5 69 69 NNW 7 11 29.84 1010 10 16 0.00 0.00
1:53 am 01:53 Clear 48 8.9 41 5 77 77 NW 8 13 29.83 1010 10 16 0.00 0.00
2:53 am 02:53 Clear 48 8.9 41 5 77 77 NW 3 6 29.83 1010 10 16 0.00 0.00
3:53 am 03:53 Clear 45 7.2 40 4.4 83 83 WNW 5 7 29.84 1010 10 16 0.00 0.00
4:53 am 04:53 Clear 43 6.1 38 3.3 82 82 WNW 3 6 29.85 1011 10 16 0.00 0.00
5:53 am 05:53 Clear 43 6.1 39 3.9 86 86 W 5 7 29.88 1012 10 16 0.00 0.00
6:53 am 06:53 Sunny 48 8.9 42 5.6 80 80 Calm 29.90 1012 10 16 0.00 0.00
7:53 am 07:53 Sunny 54 12.2 45 7.2 72 72 W 5 7 29.89 1012 10 16 0.00 0.00
8:53 am 08:53 Sunny 60 15.6 46 7.8 60 60 WSW 9 15 29.89 1012 10 16 0.00 0.00
9:53 am 09:53 Sunny 65 18.3 47 8.3 52 52 W 13 20 29.87 1011 10 16 0.00 0.00
10:53 am 10:53 Sunny 68 20 48 8.9 49 49 W 18 30 29.85 1011 10 16 0.00 0.00
11:53 am 11:53 Sunny 71 21.7 49 9.4 46 46 W 20 31 29.83 1010 10 16 0.00 0.00
12:53 pm 12:53 Sunny 74 23.3 48 8.9 40 40 W 23 37 29.80 1009 10 16 0.00 0.00
1:53 pm 13:53 Mostly Sunny 75 23.9 47 8.3 37 37 W 21 33 29.79 1009 10 16 0.00 0.00
2:53 pm 14:53 Mostly Sunny 77 25 48 8.9 36 36 W 25 41 29.76 1008 10 16 0.00 0.00
3:53 pm 15:53 Mostly Sunny 76 24.4 46 7.8 35 35 W 24 39 29.74 1007 10 16 0.00 0.00
4:53 pm 16:53 Mostly Cloudy 75 23.9 46 7.8 36 36 W 18 30 29.75 1007 10 16 0.00 0.00
5:53 pm 17:53 Mostly Sunny 75 23.9 47 8.3 37 37 W 21 33 29.74 1007 10 16 0.00 0.00
6:53 pm 18:53 Mostly Cloudy 72 22.2 47 8.3 41 41 W 15 24 29.76 1008 10 16 0.00 0.00
7:53 pm 19:53 Cloudy 66 18.9 54 12.2 65 65 N 7 11 29.82 1010 10 16 0.00 0.00
8:53 pm 20:53 Cloudy 65 18.3 56 13.3 73 73 VRB 6 9 29.86 1011 10 16 0.00 0.00
9:53 pm 21:53 Cloudy 63 17.2 54 12.2 73 73 VRB 5 7 29.90 1012 10 16 0.00 0.00
10:53 pm 22:53 Cloudy 62 16.7 54 12.2 75 75 E 3 6 29.92 1013 10 16 0.00 0.00
11:53 pm 23:53 Cloudy 60 15.6 54 12.2 80 80 Calm 29.94 1014 10 16 0.00 0.00

Powered by AerisWeather